Location: Kershaw
(34.5481°N, 80.5823°W)
Time: 16:45:16
(UTC+00:00)

S-56A Canister/Altair - Visible Passes

Search period start: 26 September 2022 00:00
Search period end: 06 October 2022 00:00
Orbit: 637 x 2496 km, 38.9° (Epoch: 25 September)

Date Brightness Start Highest point End Pass type
(mag) Time Alt. Az. Time Alt. Az. Time Alt. Az.
26 Sep 10.4 07:11:32 20° E 07:11:32 20° E 07:13:26 10° E visible
26 Sep 8.2 09:08:58 52° WSW 09:11:05 86° NNW 09:17:04 10° ENE visible
27 Sep 10.9 06:40:37 11° E 06:40:37 11° E 06:40:52 10° E visible
27 Sep 8.3 08:38:02 85° SW 08:38:17 88° SSE 08:44:42 10° ENE visible
27 Sep 8.2 10:35:36 10° W 10:42:54 58° N 10:48:00 10° ENE visible
28 Sep 8.8 08:07:05 61° E 08:07:05 61° E 08:12:18 10° ENE visible
28 Sep 8.3 10:04:30 19° W 10:10:11 60° N 10:15:37 10° ENE visible
29 Sep 9.6 07:36:07 38° ENE 07:36:07 38° ENE 07:39:53 10° ENE visible
29 Sep 8.4 09:33:32 32° WNW 09:37:25 64° N 09:43:15 10° ENE visible
30 Sep 10.3 07:05:08 23° ENE 07:05:08 23° ENE 07:07:24 10° ENE visible
30 Sep 8.5 09:02:33 51° WNW 09:04:35 67° N 09:10:52 10° ENE visible
01 Oct 10.8 06:34:09 14° ENE 06:34:09 14° ENE 06:34:53 10° ENE visible
01 Oct 8.6 08:31:34 71° NNW 08:31:41 71° NNW 08:38:27 10° ENE visible
01 Oct 8.3 10:28:59 11° WNW 10:36:41 66° N 10:42:01 10° E visible
02 Oct 9.0 08:00:35 58° NE 08:00:35 58° NE 08:06:01 10° ENE visible
02 Oct 8.4 09:58:01 20° WNW 10:03:56 65° N 10:09:38 10° E visible
03 Oct 9.7 07:29:37 38° ENE 07:29:37 38° ENE 07:33:34 10° ENE visible
03 Oct 8.6 09:27:02 33° WNW 09:31:07 65° N 09:37:13 10° E visible
04 Oct 10.4 06:58:39 24° ENE 06:58:39 24° ENE 07:01:04 10° ENE visible
04 Oct 8.7 08:56:04 51° NW 08:58:13 65° N 09:04:47 10° E visible
05 Oct 10.9 06:27:43 14° ENE 06:27:43 14° ENE 06:28:31 10° ENE visible
05 Oct 8.8 08:25:09 66° N 08:25:14 66° N 08:32:21 10° E visible
05 Oct 8.1 10:22:34 13° WNW 10:30:18 88° SSW 10:35:54 10° ESE visible
